Temp
64 64 64 62 62 61 60 61 62 62 62 62 63 62 62 61 61 61 60 60 59 59
62 62 61 60 61 61 61 62 62 63 62 62 63 63 62 61 61 61 61 60 60 59
61 62 61 62 61 61 61 62 62 62 62 63 64 64 63 62 62 61 61 61 60 60
61 62 61 61 61 61 61 61 62 63 64 64 64 63 62 62 63 61 61 61 62 62
61 61 60 60 61 61 61 62 63 64 65 65 65 64 63 62 62 62 60 61 61 61
60 60 60 60 61 61 62 62 64 64 65 65 65 64 63 62 62 61 61 61 61 61
60 60 60 61 61 61 62 63 64 65 66 65 64 63 63 63 62 61 62 62 61 61
60 61 61 61 61 62 63 65 65 65 63 62 62 58 59 63 61 61 60 61 62 62
63 61 61 61 61 62 64 66 64 63 62 61 59 47 52 59 62 61 60 60 61 61
62 62 62 62 62 61 62 64 62 60 60 60 57 46 50 52 61 61 60 60 60 59
63 62 62 62 61 61 62 62 60 59 59 59 55 47 48 51 62 62 61 60 59 58
64 62 62 61 59 60 60 59 59 59 59 60 57 46 47 57 61 60 59 60 60 60
64 63 62 61 59 60 60 60 59 58 59 54 58 46 47 57 61 59 58 58 57 50
64 62 62 60 61 60 60 60 59 58 58 59 57 53 46 51 60 59 59 58 57 54
MSLP
1001.28 1002.01 1002.85 1003.49 1004.27 1004.94 1005.58 1006.10 1006.41 1006.76 1007.25 1007.70 1007.91 1008.11 1008.41 1008.68 1008.80 1009.07 1009.32 1009.46 1009.73 1009.91
1001.79 1002.46 1003.22 1003.99 1004.55 1005.23 1005.72 1006.07 1006.40 1006.82 1007.23 1007.55 1007.74 1007.96 1008.28 1008.49 1008.64 1008.71 1008.86 1009.02 1009.26 1009.55
1002.21 1002.77 1003.47 1004.15 1004.89 1005.39 1005.74 1006.00 1006.42 1006.88 1007.22 1007.39 1007.51 1007.78 1007.90 1008.09 1008.30 1008.39 1008.55 1008.73 1008.89 1009.16
1002.68 1003.25 1003.88 1004.45 1004.93 1005.26 1005.72 1006.06 1006.53 1006.87 1007.04 1007.14 1007.34 1007.48 1007.57 1007.76 1007.95 1008.10 1008.26 1008.43 1008.46 1008.67
1003.14 1003.70 1004.23 1004.70 1005.06 1005.45 1005.84 1006.19 1006.51 1006.73 1006.86 1006.95 1007.00 1007.20 1007.32 1007.40 1007.52 1007.75 1007.93 1008.15 1008.15 1008.46
1003.58 1004.04 1004.47 1004.83 1005.18 1005.54 1005.86 1006.28 1006.56 1006.62 1006.72 1006.81 1006.97 1007.16 1007.18 1007.12 1007.15 1007.28 1007.62 1007.82 1008.07 1008.37
1003.82 1004.26 1004.59 1004.92 1005.36 1005.66 1005.95 1006.27 1006.39 1006.47 1006.64 1006.81 1007.13 1007.15 1007.06 1006.82 1006.97 1007.31 1007.59 1007.78 1007.88 1008.19
1004.00 1004.37 1004.69 1005.03 1005.45 1005.80 1006.02 1006.11 1006.19 1006.47 1006.78 1007.06 1007.30 1007.48 1007.30 1007.02 1007.05 1007.37 1007.64 1007.81 1007.87 1008.05
1003.97 1004.40 1004.74 1005.11 1005.52 1005.89 1005.99 1006.10 1006.30 1006.66 1007.02 1007.28 1007.57 1007.74 1007.44 1007.23 1007.39 1007.56 1007.66 1007.81 1008.02 1008.35
1004.12 1004.55 1004.88 1005.28 1005.64 1005.90 1006.06 1006.13 1006.43 1006.93 1007.27 1007.54 1007.83 1007.84 1007.65 1007.54 1007.72 1007.76 1007.79 1007.89 1008.18 1008.58
1004.19 1004.64 1005.03 1005.34 1005.78 1006.04 1006.17 1006.35 1006.73 1007.22 1007.55 1007.79 1008.11 1008.00 1007.90 1007.80 1007.92 1008.04 1008.20 1008.30 1008.54 1008.82
1004.16 1004.65 1005.09 1005.49 1005.96 1006.17 1006.41 1006.66 1007.00 1007.44 1007.74 1007.93 1008.24 1008.27 1008.08 1008.02 1008.12 1008.33 1008.54 1008.67 1008.96 1009.28
1004.10 1004.59 1005.02 1005.48 1006.06 1006.29 1006.56 1006.82 1007.30 1007.70 1007.92 1008.07 1008.30 1008.48 1008.36 1008.31 1008.39 1008.65 1008.98 1009.26 1009.58 1009.73
1004.06 1004.54 1005.00 1005.57 1005.98 1006.21 1006.59 1006.99 1007.53 1007.80 1007.95 1008.12 1008.35 1008.67 1008.57 1008.58 1008.70 1009.02 1009.38 1009.78 1010.23 1010.69
Wind_Speed
10 7 6 6 7 5 4 4 5 4 4 4 4 4 4 3 3 4 4 6 5 4
8 8 8 7 6 4 4 4 5 5 4 4 5 4 4 3 4 4 5 5 5 5
8 8 8 7 8 6 5 5 5 4 4 4 3 3 4 3 4 4 3 3 5 5
8 8 7 6 6 5 5 6 5 5 4 3 3 3 3 4 4 4 3 4 5 4
8 7 6 6 5 5 6 4 5 4 3 3 2 2 3 3 4 5 6 5 4 4
6 6 6 6 5 5 5 4 3 3 3 3 1 2 2 4 5 5 7 5 4 5
6 6 5 5 6 5 4 5 4 4 4 3 3 3 4 2 4 5 4 4 4 5
6 5 5 5 5 5 4 3 4 6 5 4 3 3 4 3 4 5 4 3 3 4
7 5 5 5 5 5 4 4 5 5 4 4 3 6 4 4 5 5 4 4 4 5
5 6 5 6 5 5 4 4 5 5 4 4 3 5 5 6 5 4 4 5 6 6
6 6 5 5 5 4 3 4 4 5 4 3 3 3 6 8 6 5 6 6 7 7
7 6 6 5 5 3 4 3 3 3 3 3 3 4 8 7 5 6 6 5 6 7
7 6 6 6 5 3 3 3 4 4 3 3 4 3 7 6 5 6 5 6 6 10
6 6 6 6 3 4 4 4 5 5 3 4 3 4 7 8 5 5 5 6 6 5
Wind_Direction
115 123 128 135 142 137 132 146 150 160 171 178 178 195 193 195 209 198 207 204 202 199
112 120 125 112 111 121 129 146 160 163 151 172 197 200 184 208 224 207 202 206 203 203
117 112 116 119 130 141 138 135 136 142 169 189 208 205 196 207 210 217 238 196 197 193
110 112 114 121 131 134 129 140 146 162 175 188 218 179 192 213 199 196 231 212 201 197
113 115 116 124 135 134 133 147 153 160 167 210 222 197 202 208 181 208 168 238 175 159
119 121 128 136 134 129 142 148 159 151 210 195 224 286 265 223 200 193 182 202 183 153
142 142 137 138 131 140 147 152 192 190 132 118 76 1 332 277 181 164 156 156 169 162
132 135 133 132 140 143 147 177 157 128 104 85 57 22 353 60 111 126 114 96 139 158
150 141 145 136 146 144 157 155 134 108 111 85 58 337 44 109 112 118 126 132 120 116
134 147 153 140 134 130 157 149 122 112 106 87 64 5 99 108 107 103 103 101 109 102
147 146 146 139 126 121 115 139 122 114 110 97 44 38 106 108 113 92 87 94 103 110
153 146 149 145 137 130 126 139 126 124 123 105 71 80 118 111 99 96 89 90 97 112
150 152 153 148 150 142 145 149 118 114 105 104 108 97 124 112 106 101 90 82 83 89
156 156 144 144 155 143 139 130 120 110 109 97 87 119 139 120 108 113 101 101 98 104